Regional Weather Roundup
Issued by NWS

Home | Current Version | Previous Version | Graphics & Text | Print | Product List | Glossary On
Versions: 1 2 3 4 5 6 7 8 9 10 11 12 13 14 15 16 17 18 19 20 21 22 23 24 25 26 27 28 29 30 31 32 33 34 35 36 37 38 39 40 41 42 43 44 45 46 47 48 49 50
000
ASUS43 KMKX 180800
RWRWI

WISCONSIN REGIONAL WEATHER ROUNDUP
NATIONAL WEATHER SERVICE MILWAUKEE/SULLIVAN WI
200 AM CST THU JAN 18 2018

NOTE: "FAIR" INDICATES FEW OR NO CLOUDS BELOW 12,000 FEET WITH NO
SIGNIFICANT WEATHER AND/OR OBSTRUCTIONS TO VISIBILITY.

WIZ001-002-006>008-014>016-023>028-180900-
NORTHWEST WISCONSIN

CITY           SKY/WX    TMP DP  RH WIND       PRES   REMARKS
SUPERIOR ARPT  FAIR      23  17  78 SW8       29.87F WCI  14
ASHLAND        FAIR      25  17  72 SW14      29.86  WCI  13
HAYWARD        FAIR      12   9  87 S7        29.90F WCI   1
SIREN          FAIR      24  18  75 W12       29.93F WCI  13
CUMBERLAND     FAIR      19  14  79 SW7       29.94F WCI  10
RICE LAKE      FAIR      21  15  78 CALM      29.97S
CHETEK         FAIR      20  15  79 SW3       29.97S
LADYSMITH      FAIR      15  11  85 S5        29.96S WCI   7
EAU CLAIRE     NOT AVBL
MENOMONIE      FAIR      24  16  72 SW9       30.00S WCI  14
NEW RICHMOND   FAIR      17  12  82 SW6       29.99S WCI   8
OSCEOLA        FAIR      20  14  78 S5        30.01S WCI  14
$$

WIZ003>005-009-010-017-018-180900-
NORTH CENTRAL WISCONSIN

CITY           SKY/WX    TMP DP  RH WIND       PRES   REMARKS
MANITOWISH WTR FAIR      16  12  83 SW8       29.86S WCI   5
ARBOR VITAE    FAIR      19  15  82 W5        29.87F WCI  12
WOODRUFF       FAIR      19  15  82 W5        29.87F WCI  12
RHINELANDER    FAIR      18  13  80 W10       29.88F WCI   6
EAGLE RIVER    FAIR      17  11  78 W9        29.85S WCI   5
LAND O LAKES   FAIR      20  14  79 W9        29.85S WCI   9
PHILLIPS       FAIR      18  13  82 SW8       29.90S WCI   7
TOMAHAWK       FAIR      19  14  79 W3        29.91S
MEDFORD        FAIR      18  13  79 W12       29.92F WCI   6
MERRILL        FAIR      20  13  77 W7        29.93S WCI  11
$$

WIZ029-030-035-036-043>047-180900-
CENTRAL WISCONSIN

CITY           SKY/WX    TMP DP  RH WIND       PRES   REMARKS
WAUSAU         FAIR      19  13  77 SW6       29.92F WCI  11
MOSINEE        FAIR      18  12  79 W10       29.96S WCI   6
MARSHFIELD     FAIR      18  12  77 SW9       29.95F WCI   7
STEVENS POINT  FAIR      19  12  74 SW10G16   29.97F WCI   7
WAUPACA        FAIR      24  14  65 SW13      29.98S WCI  12
WAUTOMA        FAIR      19  12  74 SW12      30.01S WCI   7
WISC RAPIDS    FAIR      19  10  68 SW7       30.00F WCI  10
CAMP DOUGLAS   FAIR      22  13  68 SW12      30.03S WCI  11
$$

WIZ011>013-019>022-031-037>040-048>050-180900-
NORTHEAST WISCONSIN

CITY           SKY/WX    TMP DP  RH WIND       PRES   REMARKS
ANTIGO         FAIR      18  12  78 W10       29.90S WCI   6
SHAWANO        FAIR      23  14  67 SW6       29.94S WCI  16
OCONTO         FAIR      20  11  67 SW7       29.94S WCI  11
STURGEON BAY   FAIR      20  12  71 SW13      29.94R WCI   7
GREEN BAY      FAIR      18   9  68 SW9       29.97R WCI   7
MANITOWOC      FAIR      20  11  68 W13       30.00R WCI   7
APPLETON       FAIR      19   9  63 SW13      29.96S WCI   7
CLINTONVILLE   FAIR      23  12  63 W8        29.96S WCI  14
OSHKOSH        FAIR      20  10  65 VRB6G18   29.99F WCI  12
$$

WIZ032>034-041-042-053>061-180900-
SOUTHWEST WISCONSIN

CITY           SKY/WX    TMP DP  RH WIND       PRES   REMARKS
LA CROSSE      FAIR      20  12  71 S7        30.08F WCI  11
SPARTA         FAIR      22  14  72 W7        30.06F WCI  13
VIROQUA        FAIR      19  13  78 SW14G20   30.05S WCI   5
BOSCOBEL       FAIR      20  10  65 SW7       30.13F WCI  11
PRAIRIE DU CHI FAIR      20   9  63 W3        30.15S
PLATTEVILLE    FAIR      19  12  72 SW17G26   30.13F WCI   4
$$

WIZ056-057-062-063-064-067-068-180900-
SOUTH CENTRAL WISCONSIN

CITY           SKY/WX    TMP DP  RH WIND       PRES   REMARKS
REEDSBURG      FAIR      20  11  68 W15       30.06S WCI   7
BARABOO/DELLS  FAIR      20  11  66 W14       30.04S WCI   7
LONE ROCK      NOT AVBL
MINERAL POINT  FAIR      19  12  73 W12       30.10S WCI   7
MADISON        FAIR      19  10  68 VRB6      30.08F WCI  11
MIDDLETON      FAIR      21  11  65 W10G17    30.08S WCI  10
WATERTOWN      FAIR      18  10  71 SW10      30.07S WCI   6
MONROE         FAIR      19  10  68 SW21      30.10F WCI   3
JANESVILLE     FAIR      19  10  68 SW9       30.13F WCI   9
$$

WIZ051-052-058>065-066-070>072-180900-
SOUTHEAST WISCONSIN

CITY           SKY/WX    TMP DP  RH WIND       PRES   REMARKS
MILWAUKEE      FAIR      21  10  62 W13       30.08S WCI   9
WAUKESHA       FAIR      18   9  68 W14G23    30.07S WCI   4
MILWAUKEE/TIMM FAIR      19   9  63 W18G24    30.07S WCI   4
RACINE         FAIR      20  10  65 W14G24    30.10F WCI   7
BURLINGTON     FAIR      18   9  67 W14G21    30.10S WCI   4
KENOSHA        FAIR      19   9  65 W15G26    30.10R WCI   5
FOND DU LAC    FAIR      20   8  60 SW9G18    30.02S WCI   9
SHEBOYGAN      FAIR      20  11  68 SW14      30.01S WCI   7
WEST BEND      FAIR      19  10  68 SW13G23   30.02S WCI   7
JUNEAU         FAIR      17   9  70 SW14      30.06S WCI   3
$$

LSZ147-162-180900-
LAKE SUPERIOR

STATION/POSITION TIME  TEMP    WIND        PRES    WAVE
                       AIR SEA DIR/SP/G            HT/PER
                 (UTC) (F)     (DEG/KT/KT) (MB)    (FT/S)
DEVILS ISLAND    0700   27     230/ 19/ 23 1011.1F
SAXON HARBOR     0740   25     190/ 11/ 15 1011.2S
$$

LMZ867-665-643>646-180900-
LAKE MICHIGAN

STATION/POSITION TIME  TEMP    WIND        PRES    WAVE
                       AIR SEA DIR/SP/G            HT/PER
                 (UTC) (F)     (DEG/KT/KT) (MB)    (FT/S)
NORTHPORT PIER   0746   22     230/  9     1012.9R
KEWAUNEE LAKESHO 0730   20     240/  7/ 11 1014.0S
SHEBOYGAN LAKESH 0700   23     230/ 12/ 16 1017.5F
PORT WASHINGTON  0740   22     250/ 10/ 14 1018.6F
MILWAUKEE LAKESH 0740   22     260/ 13/ 19   N/A
KENOSHA   LAKESH 0700   19     250/ 10/ 17 1019.6
$$

TC  - TEMPERATURE IN CELSIUS
VSB - VISIBILITY IN STATUTE MILES
WCI - WIND CHILL INDEX
HX  - HEAT INDEX





USA.gov is the U.S. government's official web portal to all federal, state and local government web resources and services.